This is the latest recevied weather packets stored in our database for station/object OK1FPA-13. If no packets are shown the sender has not sent any weather packets the latest 10 day(s).
| Time | Temp. | Humidity | Pressure | Rain* | Wind** | Luminosity | Snow |
|---|---|---|---|---|---|---|---|
| 1777801472 | 24.44° C | 29% | 1016.3 hPa | - | - | - | - |
| 1777800872 | 23.89° C | 28% | 1016.4 hPa | - | - | - | - |
| 1777800272 | 23.89° C | 30% | 1016.5 hPa | - | - | - | - |
| 1777799673 | 23.33° C | 32% | 1016.7 hPa | - | - | - | - |
| 1777799072 | 22.78° C | 32% | 1016.8 hPa | - | - | - | - |
| 1777798472 | 22.22° C | 32% | 1016.9 hPa | - | - | - | - |
| 1777797873 | 21.67° C | 33% | 1017 hPa | - | - | - | - |
| 1777797273 | 21.11° C | 33% | 1017.1 hPa | - | - | - | - |
| 1777796672 | 20.56° C | 34% | 1017.1 hPa | - | - | - | - |
| 1777796072 | 20.56° C | 33% | 1017.2 hPa | - | - | - | - |
| 1777795472 | 20.56° C | 34% | 1017.2 hPa | - | - | - | - |
| 1777794872 | 20.56° C | 34% | 1017.3 hPa | - | - | - | - |
| 1777794272 | 19.44° C | 36% | 1017.3 hPa | - | - | - | - |
| 1777793672 | 18.89° C | 36% | 1017.3 hPa | - | - | - | - |
| 1777793072 | 18.89° C | 38% | 1017.3 hPa | - | - | - | - |
| 1777792472 | 18.33° C | 37% | 1017.4 hPa | - | - | - | - |
| 1777791872 | 18.33° C | 40% | 1017.4 hPa | - | - | - | - |
| 1777791272 | 17.78° C | 38% | 1017.4 hPa | - | - | - | - |
| 1777790672 | 17.22° C | 39% | 1017.4 hPa | - | - | - | - |
| 1777790072 | 16.67° C | 40% | 1017.4 hPa | - | - | - | - |
| 1777789472 | 16.11° C | 42% | 1017.4 hPa | - | - | - | - |
| 1777788873 | 15.56° C | 42% | 1017.2 hPa | - | - | - | - |
| 1777788272 | 15° C | 43% | 1017.3 hPa | - | - | - | - |
| 1777787672 | 14.44° C | 45% | 1017.3 hPa | - | - | - | - |
| 1777787072 | 13.89° C | 49% | 1017.3 hPa | - | - | - | - |
* Rain since midnight (hover to see other rain measurements)
** Current wind speed in m/s (hover to see current wind gust speed)